CZ-3C DEB

基本信息
目录编号:
40864
目录名称:
CZ-3C DEB
国际标识:
2012-008AE
轨道中心:
EARTH
物体状态:
在轨
发射日期:
2012-02-24 UTC
轨道信息
数据来源: 国际轨道数据
星历时间: 2026-07-07T01:40:24+0800
半长轴: 24552.768km
偏心率: 0.7088779
轨道倾角: 20.121°
近地点辐角: 214.488°
升交点赤经: 26.499°
平近点角: 67.204°
近地点: 769.716km
远地点: 35579.546km
周期: 638.132分钟
每日圈数: 2.256587
详细信息
发射场:
XSC
轨道高度:
LEO
数据来源:
AOE Integration Group
参考系:
TEME
时间系统:
UTC
历元类型:
SGP4
2D轨道图
3D轨道图
轨道高度分析图
轨道倾角分析图
轨道综合分析图
查看轨道综合分析图